COSMOS 2529 (757)

Last updated on Sat Dec 13 2025 00:03:19 GMT+0000 (Coordinated Universal Time)

1 43687U 18086A 25345.94686860 .00000061 00000+0 00000+0 0 9992 2 43687 64.2920 198.9152 0007271 254.2987 105.6915 2.13101914 55292
UTC large
Height (km)
Speed (km/s)
/
Latitude / Longitude
Inclination (degrees)
Orbital Period (minutes)
Azimuth
Elevation
Range (km)
Doppler Factor

Next 0 passes for location: London (51.5072 / 0.1276)

Sorry there are no passes over London.